[[{"header":{"parameterUnit":"m.s-1","parameterCategory":1,"la1":30.2991,"la2":30.254,"lo1":-89.0895,"lo2":-89.0444,"dy":0.0017,"dx":0.0017,"nx":28,"ny":28,"refTime":"2024-07-09T03:00:00:Z","depth":0,"parameterNumber":2,"parameterNumberName":"U-component_of_WINDS"},"data":[0,0,0,0,0,0,0,0,0,0,0,0,0,0,0,0,0,0,0,0,0,0,0,0,0,0,0,0,0,0,0,0,0,0,0,0,0,0,0,0,0,0,0,0,0,0,0,0,0,0,0,0,0,0,0,0,0,0,3.0601,3.0601,0,3.0534,3.0533,3.0533,3.036,3.0356,3.0352,3.0349,3.0287,3.0289,3.0291,0,0,0,0,0,0,0,0,0,0,0,0,0,3.0585,3.0586,3.0601,3.0601,3.06,3.0534,3.0533,3.0532,3.036,3.0356,3.0351,3.0347,3.0287,3.0289,3.0291,0,0,0,0,0,0,0,0,0,0,0,0,0,3.0563,3.0587,3.0602,3.0506,3.0496,3.0534,3.0533,3.0532,3.0361,3.0356,3.035,3.0345,3.0286,3.0289,3.0291,3.0419,0,0,3.0299,3.0301,0,0,0,0,0,0,0,0,3.0564,3.0564,3.0521,3.0512,3.0502,3.0449,3.0505,3.0494,3.0363,3.0413,3.0349,3.0342,3.0346,3.0344,3.0343,3.0416,3.0413,3.03,3.0301,3.0303,3.0303,0,0,0,0,0,0,0,3.0566,3.0565,3.0575,3.052,3.0509,3.0468,3.0458,3.0502,3.0412,3.0408,3.0395,3.0389,3.034,3.0341,3.0341,3.0412,3.03,3.0302,3.0304,3.0305,3.0581,3.0586,0,0,0,0,0,0,3.0581,3.0568,3.0577,3.0573,3.052,3.0472,3.0462,3.0472,3.0411,3.0396,3.0394,3.0382,3.0339,3.0338,3.0338,3.0478,3.0303,3.0305,3.0307,3.0575,3.0582,3.0588,0,0,0,0,0,0,3.0581,3.0583,3.058,3.0567,3.0563,3.0478,3.0491,3.0474,3.0474,3.04,3.0384,3.0411,3.0335,3.0334,3.0398,3.0474,3.0306,3.0309,3.0568,3.0577,3.0585,3.0764,0,0,0,0,0,0,3.0581,3.0584,3.0631,3.0569,3.0564,3.0641,3.0496,3.0476,3.0479,3.0461,3.0412,3.0398,3.033,3.0395,3.0401,3.0475,3.0311,3.0561,3.0572,3.0583,3.0751,3.0778,3.0801,0,0,0,0,0,3.0581,3.0687,3.0634,3.0636,3.0621,3.0645,3.0643,3.056,3.0486,3.0532,3.0483,3.04,3.0466,3.0403,3.0408,3.0484,3.0556,3.0569,3.0582,3.074,3.0773,3.08,0,0,0,0,0,0,3.0763,3.0677,3.0618,3.0706,3.0684,3.0616,3.0672,3.0598,3.0599,3.0583,3.0483,3.0473,3.055,3.0524,3.0456,3.0602,3.0497,3.0512,3.0616,3.0646,3.067,3.0674,3.0313,0,0,0,0,0,3.0813,3.0838,3.0762,3.0848,3.0839,3.0758,3.0766,3.0704,3.0678,3.0668,3.0624,3.0604,3.0619,3.0632,3.0642,3.0747,3.0732,3.0802,3.0827,3.0848,3.086,3.091,3.0938,3.0631,3.063,3.063,0,0,3.0917,3.0873,3.0896,3.0883,3.0858,3.0887,3.0751,3.0789,3.0809,3.0675,3.073,3.0698,3.0669,3.0752,3.0787,3.0733,3.0942,3.0864,3.0881,3.0882,3.0926,3.0955,3.0981,3.0639,3.0638,3.0636,0,0,3.112,3.1091,3.1156,3.1133,3.1096,3.1041,3.1057,3.1,3.0972,3.1026,3.0924,3.0948,3.0978,3.0959,3.0954,3.1147,3.1069,3.1154,3.1283,3.1332,3.1356,3.1377,3.1442,3.1467,3.1168,3.1169,3.1169,0,3.1255,3.1291,3.12,3.1241,3.1238,3.1115,3.1179,3.1163,3.1133,3.1134,3.1073,3.1104,3.1076,3.1151,3.1198,3.12,3.1213,3.1158,3.136,3.138,3.1398,3.1459,3.1484,3.1179,3.1178,3.1176,3.1175,0,3.1456,3.1484,3.1542,3.1511,3.1514,3.1568,3.1485,3.15,3.1437,3.1389,3.1444,3.1406,3.1404,3.1418,3.136,3.1485,3.1451,3.1378,3.1269,3.1439,3.1494,3.1517,3.1193,3.119,3.1187,3.1184,0,0,3.1772,3.1687,3.1709,3.1692,3.1641,3.1661,3.171,3.1704,3.1717,3.1702,3.1737,3.1764,3.1693,3.1687,3.1626,3.167,3.182,3.1589,3.1587,3.163,3.1951,3.2004,3.2033,3.1769,3.1773,3.1777,3.1952,0,3.1959,3.2032,3.195,3.2041,3.2063,3.1946,3.1987,3.1961,3.1917,3.1931,3.1883,3.1901,3.1809,3.1804,3.1843,3.1794,3.1882,3.1781,3.18,3.1802,3.1807,3.2062,3.2119,3.2286,3.1973,3.1977,3.198,0,3.2187,3.2176,3.2269,3.2208,3.2214,3.2253,3.2239,3.2255,3.2222,3.2187,3.2179,3.2103,3.2146,3.2043,3.2099,3.2031,3.2035,3.2013,3.2017,3.2013,3.1899,3.2061,3.2338,3.2362,3.2014,3.2011,3.2008,0,3.2401,3.2412,3.2466,3.2456,3.2388,3.2417,3.2391,3.2353,3.2354,3.2344,3.2343,3.234,3.2338,3.2337,3.2262,3.2195,3.2327,3.2219,3.2297,3.2299,3.2328,3.2326,3.2605,3.2338,3.2337,3.2337,3.2336,0,3.2617,3.2677,3.2561,3.2594,3.2658,3.2564,3.263,3.2591,3.2558,3.2582,3.2484,3.2509,3.241,3.2425,3.2368,3.2421,3.2422,3.2394,3.2377,3.24,3.2403,3.2399,3.2384,3.2343,3.2342,3.2341,3.2339,0,3.2866,3.2791,3.2842,3.2773,3.2757,3.2806,3.2747,3.2775,3.2724,3.2756,3.2758,3.2679,3.2691,3.2617,3.2617,3.2578,3.2658,3.2624,3.2668,3.2655,3.2736,3.2728,3.3019,3.3051,3.2767,3.277,3.2773,0,3.3006,3.3048,3.2982,3.2989,3.2967,3.2982,3.2981,3.289,3.2894,3.2859,3.2891,3.2894,3.2891,3.2917,3.286,3.2858,3.2821,3.2923,3.282,3.284,3.2817,3.2814,3.2816,3.2943,3.2947,3.295,3.2952,0,3.3261,3.3221,3.3222,3.321,3.3211,3.3199,3.318,3.3193,3.3094,3.3103,3.3112,3.311,3.3108,3.3111,3.3098,3.3072,3.2996,3.2985,3.3002,3.3025,3.3046,3.3031,3.2721,3.2978,3.2976,3.2974,3.2972,3.2971,3.3456,3.3486,3.3443,3.3448,3.3423,3.3407,3.3428,3.3378,3.3384,3.3372,3.332,3.3338,3.3302,3.3276,3.3257,3.327,3.3221,3.3248,3.3253,3.326,3.3273,3.3048,3.3268,3.3267,3.3266,3.3266,3.3265,0,3.3701,3.3667,3.3672,3.3646,3.365,3.3576,3.355,3.3558,3.3574,3.3547,3.3545,3.3554,3.3557,3.35,3.3495,3.3516,3.3481,3.3518,3.3513,3.3507,3.3319,3.3302,3.3546,3.3546,3.3546,3.3546,3.3546,3.3546,3.3829,3.3875,3.383,3.3863,3.3829,3.3843,3.3835,3.3819,3.3795,3.3809,3.3809,3.3771,3.3731,3.3722,3.3721,3.3704,3.3705,3.3754,3.3725,3.3549,3.3521,3.3495,3.3479,3.3756,3.3756,3.3911,3.3913,3.3914]},{"header":{"parameterUnit":"m.s-1","parameterCategory":1,"la1":30.2991,"la2":30.254,"lo1":-89.0895,"lo2":-89.0444,"dy":0.0017,"dx":0.0017,"nx":28,"ny":28,"refTime":"2024-07-09T03:00:00:Z","depth":0,"parameterNumber":3,"parameterNumberName":"V-component_of_WINDS"},"data":[0,0,0,0,0,0,0,0,0,0,0,0,0,0,0,0,0,0,0,0,0,0,0,0,0,0,0,0,0,0,0,0,0,0,0,0,0,0,0,0,0,0,0,0,0,0,0,0,0,0,0,0,0,0,0,0,0,0,3.944,3.944,0,3.9468,3.9469,3.9469,3.9386,3.9383,3.938,3.9378,3.9403,3.9406,3.9409,0,0,0,0,0,0,0,0,0,0,0,0,0,3.9309,3.9311,3.944,3.944,3.9441,3.9468,3.9469,3.9469,3.9386,3.9383,3.938,3.9377,3.9402,3.9405,3.9409,0,0,0,0,0,0,0,0,0,0,0,0,0,3.9354,3.9312,3.944,3.9403,3.94,3.9468,3.9469,3.9469,3.9387,3.9383,3.9379,3.9375,3.94,3.9405,3.9409,3.9514,0,0,3.9423,3.9425,0,0,0,0,0,0,0,0,3.9352,3.9359,3.9408,3.9405,3.9402,3.942,3.9431,3.9484,3.9388,3.9391,3.9378,3.9374,3.9411,3.9414,3.9428,3.9515,3.9516,3.9424,3.9426,3.9428,3.943,0,0,0,0,0,0,0,3.9349,3.9357,3.9451,3.9409,3.9405,3.9383,3.9385,3.9441,3.9422,3.9391,3.9385,3.939,3.9409,3.9424,3.9428,3.9516,3.9423,3.9427,3.943,3.9432,3.9687,3.9691,0,0,0,0,0,0,3.9351,3.9355,3.945,3.9452,3.9367,3.9388,3.9391,3.9418,3.9421,3.9418,3.9393,3.9386,3.9418,3.9423,3.9428,3.9548,3.9428,3.9432,3.9435,3.9683,3.9688,3.9692,0,0,0,0,0,0,3.9348,3.936,3.9449,3.9402,3.9412,3.9395,3.9426,3.942,3.9435,3.9423,3.9419,3.9412,3.9415,3.9422,3.9493,3.9548,3.9435,3.9439,3.9678,3.9684,3.969,3.9791,0,0,0,0,0,0,3.9345,3.936,3.9401,3.9404,3.9414,3.9515,3.9429,3.9424,3.9444,3.9435,3.944,3.9437,3.9413,3.9486,3.9497,3.9552,3.9442,3.9673,3.9681,3.9688,3.9782,3.9799,3.9814,0,0,0,0,0,3.9341,3.9428,3.9403,3.9415,3.9465,3.9518,3.9524,3.9496,3.9449,3.9488,3.948,3.9437,3.9541,3.9494,3.9506,3.9563,3.9669,3.9678,3.9687,3.9775,3.9796,3.9814,0,0,0,0,0,0,3.943,3.9427,3.94,3.9491,3.9506,3.9504,3.9553,3.9519,3.9546,3.9536,3.9498,3.95,3.9577,3.9577,3.9525,3.9663,3.9597,3.9609,3.9659,3.9679,3.9695,3.9692,3.9446,0,0,0,0,0,3.9461,3.9506,3.95,3.9581,3.959,3.9571,3.9592,3.9569,3.9582,3.9587,3.9584,3.9597,3.9632,3.9656,3.9688,3.9783,3.9781,3.9827,3.9843,3.9857,3.9866,3.9914,3.9933,3.9722,3.9722,3.9722,0,0,3.9524,3.9528,3.9558,3.9599,3.9607,3.9652,3.9576,3.9627,3.9659,3.9594,3.966,3.9659,3.967,3.9753,3.9789,3.9755,3.9925,3.9868,3.9879,3.9881,3.9925,3.9945,3.9963,3.9728,3.9727,3.9726,0,0,3.9662,3.9671,3.9737,3.9748,3.9762,3.9748,3.9765,3.9768,3.9764,3.9831,3.9782,3.9819,3.9882,3.9891,3.9904,4.0045,4.0004,4.0056,4.0138,4.0185,4.0201,4.0216,4.0263,4.0281,4.0066,4.0067,4.0067,0,3.9738,3.9805,3.9776,3.983,3.9848,3.9793,3.9858,3.9869,3.9893,3.9905,3.9868,3.9944,3.9948,4.003,4.0065,4.0078,4.0093,4.0054,4.0202,4.0216,4.0229,4.0274,4.0292,4.0073,4.0072,4.0071,4.0071,0,3.9897,3.9944,3.9996,4.0021,4.0045,4.0105,4.0082,4.011,4.0085,4.0074,4.0141,4.0144,4.0175,4.0193,4.0169,4.0272,4.025,4.0209,4.0141,4.0256,4.0297,4.0314,4.0081,4.0079,4.0077,4.0076,0,0,4.009,4.0098,4.0117,4.0127,4.0138,4.0173,4.0229,4.026,4.0283,4.0301,4.0346,4.04,4.036,4.0375,4.0352,4.0393,4.0501,4.0345,4.0345,4.0372,4.0611,4.0641,4.0661,4.0475,4.0479,4.0481,4.0609,0,4.0223,4.0321,4.0296,4.0392,4.0433,4.0382,4.043,4.0441,4.0434,4.0466,4.0457,4.0495,4.0442,4.045,4.0489,4.0479,4.0548,4.047,4.0514,4.0516,4.051,4.0683,4.0715,4.0835,4.0625,4.0628,4.063,0,4.0392,4.0416,4.0517,4.052,4.0536,4.0581,4.0606,4.0639,4.065,4.0641,4.0658,4.0625,4.0678,4.0613,4.0684,4.0632,4.0649,4.0647,4.0651,4.0651,4.0578,4.0686,4.0873,4.0891,4.0655,4.0653,4.0652,0,4.0519,4.0578,4.0645,4.0655,4.0661,4.0693,4.0696,4.0704,4.0723,4.0745,4.0757,4.0785,4.0799,4.0821,4.0796,4.0751,4.087,4.0803,4.0862,4.0863,4.0887,4.0886,4.1078,4.0903,4.0903,4.0902,4.0902,0,4.0668,4.0731,4.0702,4.0743,4.0811,4.0781,4.0849,4.0846,4.0853,4.0891,4.0848,4.0885,4.0851,4.0884,4.0865,4.0926,4.0933,4.0926,4.092,4.0928,4.0929,4.0937,4.0927,4.0907,4.0906,4.0905,4.0904,0,4.0821,4.0805,4.0874,4.0874,4.0875,4.0925,4.0924,4.0961,4.095,4.0999,4.1008,4.0991,4.1027,4.1005,4.1043,4.103,4.1108,4.1092,4.1104,4.1099,4.1158,4.1152,4.136,4.1384,4.1197,4.1198,4.12,0,4.0917,4.0964,4.0969,4.0991,4.0998,4.1036,4.1056,4.1027,4.1049,4.1065,4.1099,4.1132,4.1157,4.1217,4.1207,4.1234,4.1217,4.1288,4.122,4.1227,4.1214,4.1211,4.1214,4.13,4.1302,4.1304,4.1306,0,4.1086,4.1075,4.1106,4.1134,4.1159,4.118,4.1196,4.1217,4.1189,4.1216,4.1253,4.1272,4.131,4.1342,4.1366,4.1367,4.1331,4.1327,4.1342,4.135,4.1354,4.135,4.1138,4.1322,4.132,4.1319,4.1318,4.1318,4.1211,4.125,4.1259,4.1294,4.1304,4.132,4.1354,4.1348,4.1379,4.1408,4.1389,4.1432,4.144,4.1468,4.1474,4.1506,4.1477,4.1499,4.1504,4.1509,4.1516,4.1352,4.1511,4.151,4.151,4.1509,4.1509,0,4.1376,4.1379,4.1412,4.1437,4.1464,4.143,4.1446,4.1471,4.151,4.1521,4.1546,4.1588,4.1619,4.1611,4.1639,4.1666,4.165,4.1674,4.167,4.1671,4.1542,4.1525,4.1686,4.1686,4.1686,4.1686,4.1686,4.1686,4.1465,4.1527,4.1518,4.1584,4.1586,4.1629,4.1641,4.1655,4.1663,4.1712,4.1738,4.1734,4.1736,4.1764,4.179,4.1787,4.1798,4.1828,4.1818,4.1698,4.168,4.1663,4.1647,4.1831,4.1831,4.1944,4.1945,4.1946]}]]